Hourly Data Report for October 03, 2015

All times are specified in Local Standard Time (LST). Add 1 hour to adjust for Daylight Saving Time where and when it is observed.

OTTAWA INTL A
ONTARIO

45°19'00.000" N
75°40'00.000" W
114.90 m
6106001
71628
YOW

Download Data

Hourly Data (October 2015)
Hourly Data Report for October 3, 2015
Temp Definition
°C
Dew Point Temp Definition
°C
Rel Hum Definition
%
Wind Dir Definition
10's deg

Wind Spd Definition
km/h
Visibility Definition
km
Stn Press Definition
kPa
Hmdx Definition


Wind Chill Definition


Weather Definition


TIME
00:00 Legend Double Dagger 4.5 -1.7 64 3 16 24.1 102.07     LegendNANA
01:00 Legend Double Dagger 3.9 -1.5 68 5 16 24.1 102.10     Mostly Cloudy
02:00 Legend Double Dagger 4.5 -1.1 67 4 21 24.1 102.10     LegendNANA
03:00 Legend Double Dagger 4.3 -0.5 71 3 18 24.1 102.12     LegendNANA
04:00 Legend Double Dagger 3.7 -0.3 75 3 15 24.1 102.15     Mostly Cloudy
05:00 Legend Double Dagger 3.6 -0.2 76 4 20 24.1 102.16     LegendNANA
06:00 Legend Double Dagger 3.6 -0.2 76 3 23 24.1 102.17     LegendNANA
07:00 Legend Double Dagger 4.5 0.1 73 4 23 24.1 102.20     Mostly Cloudy
08:00 Legend Double Dagger 6.9 0.6 64 6 27 24.1 102.22     LegendNANA
09:00 Legend Double Dagger 8.6 1.3 60 7 24 24.1 102.23     LegendNANA
10:00 Legend Double Dagger 9.3 0.5 54 6 32 24.1 102.18     Mostly Cloudy
11:00 Legend Double Dagger 10.8 0.8 50 6 34 24.1 102.15     LegendNANA
12:00 Legend Double Dagger 11.4 0.8 48 6 36 24.1 102.11     LegendNANA
13:00 Legend Double Dagger 12.7 1.7 47 6 26 24.1 102.03     Mainly Clear
14:00 Legend Double Dagger 11.4 -0.4 44 7 29 24.1 102.00     LegendNANA
15:00 Legend Double Dagger 12.4 0.5 44 5 35 24.1 101.95     LegendNANA
16:00 Legend Double Dagger 10.8 -0.3 46 6 33 24.1 101.94     Mostly Cloudy
17:00 Legend Double Dagger 10.2 0.8 52 7 23 24.1 101.99     LegendNANA
18:00 Legend Double Dagger 9.3 1.0 56 6 18 24.1 101.97     LegendNANA
19:00 Legend Double Dagger 9.0 0.2 54 6 21 24.1 101.96     Mostly Cloudy
20:00 Legend Double Dagger 8.3 0.6 58 6 18 24.1 101.97     LegendNANA
21:00 Legend Double Dagger 7.5 1.2 64 6 17 24.1 101.96     LegendNANA
22:00 Legend Double Dagger 6.8 1.3 68 6 19 24.1 101.95     Mostly Cloudy
23:00 Legend Double Dagger 6.4 1.5 71 6 17 24.1 101.95     LegendNANA

Notes on Data Quality.

Legend

  • E = Estimated
  • M = Missing
  • NA = Not Available
  • ‡ = Partner data that is not subject to review by the National Climate Archives
Date modified: